Location: Augustenthal
(51.7167°N, 10.2833°E)
Time: 21:16:50
(UTC+00:00)

Cosmos 1356 Rocket - Pass Details

Date: 18 May 2021
Orbit: 542 x 598 km, 81.2° (Epoch: 24 June)

Event Time Altitude Azimuth Distance (km) Brightness Sun altitude
Rises 22:54:10 0° 341° (NNW) 2,853 8.5 -18.4°
Reaches altitude 10° 22:56:30 10° 333° (NNW) 1,948 7.1 -18.4°
Maximum altitude 23:00:28 37° 266° (W) 949 4.5 -18.4°
Enters shadow 23:01:54 28° 226° (SW) 1,128 4.5 -18.5°
